Regional Weather Roundup
Issued by NWS

Home | Current Version | Previous Version | Graphics & Text | Print | Product List | Glossary On
Versions: 1 2 3 4 5 6 7 8 9 10 11 12 13 14 15 16 17 18 19 20 21 22 23 24 25 26 27 28 29 30 31 32 33 34 35 36 37 38 39 40 41 42 43 44 45 46 47 48 49 50
000
ASUS43 KLOT 271104
RWRIL

ILLINOIS REGIONAL WEATHER ROUNDUP
NATIONAL WEATHER SERVICE CHICAGO/ROMEOVILLE IL
600 AM CDT TUE SEP 27 2016

NOTE: "FAIR" INDICATES FEW OR NO CLOUDS BELOW 12,000 FEET WITH NO
SIGNIFICANT WEATHER AND/OR OBSTRUCTIONS TO VISIBILITY.

* THESE STATIONS ARE NOT UNDER NWS QUALITY CONTROL. THEY ALSO MAY NOT
  REPORT WEATHER SUCH AS PRECIPITATION OR FOG.

ILZ001-002-007-009-015-016-024-271200-
NORTHWEST ILLINOIS

CITY           SKY/WX    TMP DP  RH WIND       PRES   REMARKS
MOLINE         CLEAR     50  42  74 W5        29.92S
STERLING*      CLEAR     48  44  86 SW7       29.90F
$$

ILZ003-004-008-010-011-017-018-271200-
NORTH CENTRAL ILLINOIS

CITY           SKY/WX    TMP DP  RH WIND       PRES   REMARKS
ROCKFORD       CLEAR     50  40  68 SW8       29.87F
FREEPORT*      CLEAR     46  40  80 SW10      29.87F
ROCHELLE*      CLEAR     47  42  82 SW7       29.89R
$$

ILZ005-006-012>014-019>023-271200-
NORTHEAST ILLINOIS

CITY           SKY/WX    TMP DP  RH WIND       PRES   REMARKS
CHICAGO-OHARE  CLEAR     52  40  63 W14       29.84S
CHICAGO-MIDWAY CLEAR     54  40  59 W10       29.85F
AURORA         CLEAR     47  41  80 SW7       29.88S
LANSING*       PTCLDY    52  45  76 W9        29.87S
JOLIET*        CLEAR     52  44  74 W7        29.88F
WAUKEGAN       CLEAR     52  39  61 SW7       29.81S
DUPAGE AIRPORT CLEAR     48  40  73 SW9       29.86S
KANKAKEE*      CLEAR     46  42  86 S7        29.90S
WHEELING       CLEAR     53  39  59 W8        29.85S
MORRIS*        CLEAR     48  42  79 CALM      29.88F
ROMEOVILLE*    CLEAR     51  46  82 W10G16    29.87F
NORTHERLY ISL    N/A     56  40  55 W7          N/A
$$

LMZ740>746-271200-
SOUTHERN LAKE MICHIGAN

STATION/POSITION SKY/WX   TEMP    WIND        PRES    VSBY  WAVE
                          AIR SEA DIR/SP/G                  HT/PER
                          (F)     (DEG/KT/KT) (MB)    (MI)  (FT/S)
SOUTHERN BUOY              62 70  250/ 23/ 27 1007.4          5/ 6
WILMETTE HARBOR            57 62  270/ 16/ 19   N/A           2/ 2
HARRISON CRIB              59     250/ 21/ 24   N/A
BURNHAM HARBOR             56     270/  8/ 10   N/A
CALUMET HARBOR             55     240/  8/ 15 1010.7F
BURNS HARBOR               56     220/ 13/ 17 1011.2F
MICHIGAN CITY              54     190/ 13/ 14   N/A
MICHIGAN CITY 6N           60 67  240/ 17/ 23   N/A           4/ 4
ST. JOSEPH                 65 66  250/ 19/ 27 1009.6F         7/ 6
$$

ILZ025>027-034>036-040-047-049-050-058-095>099-271200-
WEST-CENTRAL ILLINOIS

CITY           SKY/WX    TMP DP  RH WIND       PRES   REMARKS
QUINCY         CLEAR     50  45  83 W6        29.98F
GALESBURG*       N/A    N/A N/A N/A MISG        N/A
MACOMB*        CLEAR     48  45  89 W6        29.98F
JACKSONVILLE*  CLEAR     52  44  74 SW7       29.98S
PITTSFIELD*    CLEAR     55  46  70 W6        30.00F
$$

ILZ028>032-037-038-041>044-048-051>054-059>061-271200-
CENTRAL ILLINOIS

CITY           SKY/WX    TMP DP  RH WIND       PRES   REMARKS
PONTIAC        CLEAR     51  48  87 SW9       29.92F
BLOOMINGTON    CLEAR     53  44  71 W13       29.95S
DECATUR        CLEAR     56  43  61 SW12      29.97S
PEORIA         CLEAR     52  46  80 W7        29.94F
LACON*         CLEAR     53  42  67 SW5       29.91F
LINCOLN*       CLEAR     56  46  67 W6        29.96S
SPRINGFIELD    CLEAR     52  44  74 SW7       29.97F
TAYLORVILLE    CLEAR     55  43  63 SW9       29.99S
$$

ILZ033-039-045-046-055>057-062-063-271200-
EAST-CENTRAL ILLINOIS

CITY           SKY/WX    TMP DP  RH WIND       PRES   REMARKS
CHAMPAIGN      CLEAR     52  43  71 SW8       29.95F
RANTOUL*       CLEAR     55  45  68 W8        29.94S
MATTOON        CLEAR     53  43  68 SW8       29.98S
PARIS*         CLEAR     50  44  78 CALM      29.98S
$$

ILZ079-100>102-271200-
SOUTHWEST ILLINOIS

CITY           SKY/WX    TMP DP  RH WIND       PRES   REMARKS
BELLEVILLE     CLEAR     50  47  92 S6        30.01F
CAHOKIA*       CLEAR     54  46  74 CALM      30.03F
SPARTA*        CLEAR     52  46  80 SW3       30.05F
$$

ILZ064>066-069>071-074>076-080>082-084>086-088>090-092>094-271200-
SOUTH-CENTRAL ILLINOIS

CITY           SKY/WX    TMP DP  RH WIND       PRES   REMARKS
CARBONDALE     CLEAR     48  48 100 W3        30.05S
EFFINGHAM*     PTCLDY    50  48  93 S3        30.02S
MARION         PTCLDY    52  52 100 CALM      30.05S
MT. VERNON     PTCLDY    46  39  76 CALM      30.05S
SALEM*         CLEAR     51  47  85 SW6       30.03S
METROPOLIS*    DRZL/FOG  48  48  99 CALM      30.06S VSB<1/4
$$

ILZ067-068-072-073-078-083-087-091-271200-
SOUTHEAST ILLINOIS

CITY           SKY/WX    TMP DP  RH WIND       PRES   REMARKS
LAWRENCEVILLE  CLEAR     47  44  90 SW5       30.02S
FLORA*         CLEAR     49  46  88 SW5       30.03S
FAIRFIELD*       N/A     49  48  99 CALM      30.03S
HARRISBURG*    CLEAR     47  47 100 CALM      30.05S
ROBINSON*      PTCLDY    46  43  90 SW3       30.02S
CARMI*         CLEAR     47  47 100 CALM      30.03S
$$

ABBREVIATIONS USED IN REMARKS
   TC - TEMPERATURE IN CELSIUS
  WCI - WIND CHILL INDEX
   HX - HEAT INDEX
  VSB - VISIBILITY
$$




USA.gov is the U.S. government's official web portal to all federal, state and local government web resources and services.